Date String (YYYY-MM-DD hh:mm:ss) UTC,Instrument flags,Ambient pressure (hPa),Sample flow (lpm),Bypass flow (lpm),Sample temperature (°C),Ambient temperature (°C),ASC tube jacket temperature (°C),LED temperature (°C),Box temperature (°C),Sample RH (%),Span deviation,Mass concentration (μg/m³),Mass concentration (μg/m³),Mass concentration (μg/m³)
DateTimeUTC,F1_M11,P_M11,Q1_M11,Q2_M11,T1_M11,T2_M11,T3_M11,T4_M11,T5_M11,U1_M11,ZSPAN_M11,X2_M11,X0_M11,X1_M11
2022-02-20 01:00:00,,0819.9,4.98,0.00,24.2,23.1,00.0,33.3,26.0,07.4,0000.0,0000.62,0004.75,0000.35
2022-02-20 01:01:00,,0819.9,5.01,0.00,24.2,23.2,00.0,33.3,26.0,07.3,0000.0,0000.62,0004.75,0000.35
2022-02-20 01:02:00,,0819.9,5.00,0.00,24.2,23.2,00.0,33.3,26.0,07.0,0000.0,0000.63,0004.78,0000.36
2022-02-20 01:03:00,,0820.0,4.99,0.00,24.2,23.2,00.0,33.2,25.9,07.2,0000.0,0000.62,0004.75,0000.36
2022-02-20 01:04:00,,0820.0,4.99,0.00,24.2,23.2,00.0,33.2,25.8,07.5,0000.0,0000.60,0004.70,0000.36
2022-02-20 01:05:00,,0819.9,5.02,0.00,24.1,23.2,00.0,33.2,25.7,07.8,0000.0,0000.54,0003.32,0000.36
2022-02-20 01:06:00,,0819.9,5.01,0.00,24.1,23.2,00.0,33.2,25.7,07.7,0000.0,0000.51,0003.06,0000.36
2022-02-20 01:07:00,,0819.9,4.99,0.00,24.1,23.3,00.0,33.2,25.9,07.6,0000.0,0000.49,0002.96,0000.36
2022-02-20 01:08:00,,0819.9,4.99,0.00,24.1,23.3,00.0,33.2,25.9,07.7,0000.0,0000.47,0002.79,0000.36
2022-02-20 01:09:00,,0819.9,5.02,0.00,24.1,23.3,00.0,33.2,25.9,07.8,0000.0,0000.48,0002.80,0000.37
2022-02-20 01:10:00,,0820.1,4.99,0.00,24.1,23.2,00.0,33.2,25.9,07.7,0000.0,0000.48,0001.36,0000.37
2022-02-20 01:11:00,,0820.1,5.00,0.00,24.1,23.2,00.0,33.2,25.7,07.7,0000.0,0000.50,0000.81,0000.38
2022-02-20 01:12:00,,0820.0,4.99,0.00,24.0,23.1,00.0,33.1,25.5,07.8,0000.0,0000.50,0000.79,0000.39
2022-02-20 01:13:00,,0820.0,5.01,0.00,24.0,23.1,00.0,33.1,25.6,07.6,0000.0,0000.48,0000.73,0000.39
2022-02-20 01:14:00,,0820.0,4.99,0.00,24.0,23.1,00.0,33.1,25.7,07.6,0000.0,0000.49,0000.75,0000.38
2022-02-20 01:15:00,,0820.0,5.01,0.00,24.0,23.1,00.0,33.1,25.7,07.4,0000.0,0000.49,0000.77,0000.39
2022-02-20 01:16:00,,0820.1,5.00,0.00,24.0,23.1,00.0,33.1,25.6,07.5,0000.0,0000.52,0000.82,0000.40
2022-02-20 01:17:00,,0820.2,5.00,0.00,24.0,23.1,00.0,33.1,25.5,07.6,0000.0,0000.53,0000.94,0000.40
2022-02-20 01:18:00,,0820.2,5.01,0.00,23.9,23.1,00.0,33.1,25.5,07.7,0000.0,0000.53,0000.92,0000.40
2022-02-20 01:19:00,,0820.2,4.99,0.00,23.9,23.1,00.0,33.1,25.5,07.5,0000.0,0000.51,0000.86,0000.40
2022-02-20 01:20:00,,0820.1,5.00,0.00,23.9,23.1,00.0,33.1,25.5,07.6,0000.0,0000.50,0001.72,0000.40
2022-02-20 01:21:00,,0820.0,5.02,0.00,23.9,23.1,00.0,33.0,25.5,07.6,0000.0,0000.52,0002.15,0000.40
2022-02-20 01:22:00,,0820.0,4.99,0.00,23.9,23.1,00.0,33.0,25.6,07.7,0000.0,0000.50,0002.16,0000.40
2022-02-20 01:23:00,,0820.0,5.00,0.00,23.9,23.1,00.0,33.0,25.6,07.5,0000.0,0000.51,0002.16,0000.39
2022-02-20 01:24:00,,0820.0,5.00,0.00,23.9,23.0,00.0,33.0,25.6,07.2,0000.0,0000.51,0002.15,0000.39
2022-02-20 01:25:00,,0820.0,5.01,0.00,23.9,23.1,00.0,33.0,25.5,07.6,0000.0,0000.50,0002.56,0000.39
2022-02-20 01:26:00,,0819.9,5.02,0.00,23.9,23.0,00.0,33.0,25.5,07.6,0000.0,0000.50,0002.75,0000.39
2022-02-20 01:27:00,,0819.9,5.00,0.00,23.9,23.0,00.0,33.0,25.5,07.6,0000.0,0000.51,0002.79,0000.38
2022-02-20 01:28:00,,0820.1,4.99,0.00,23.9,23.0,00.0,33.0,25.5,07.6,0000.0,0000.53,0002.78,0000.38
2022-02-20 01:29:00,,0820.1,5.00,0.00,23.9,23.0,00.0,33.0,25.4,07.8,0000.0,0000.53,0002.79,0000.38
2022-02-20 01:30:00,,0820.1,5.01,0.00,23.9,22.9,00.0,33.0,25.5,07.8,0000.0,0000.54,0002.82,0000.38
2022-02-20 01:31:00,,0820.1,4.99,0.00,23.9,22.9,00.0,33.0,25.5,07.9,0000.0,0000.54,0002.07,0000.38
2022-02-20 01:32:00,,0820.0,5.02,0.00,23.9,23.0,00.0,33.0,25.5,07.9,0000.0,0000.54,0001.58,0000.38
2022-02-20 01:33:00,,0819.9,5.00,0.00,23.9,23.0,00.0,33.0,25.5,07.6,0000.0,0000.55,0002.33,0000.38
2022-02-20 01:34:00,,0820.0,5.00,0.00,23.9,23.0,00.0,33.0,25.5,07.4,0000.0,0000.55,0002.96,0000.39
2022-02-20 01:35:00,,0820.0,5.01,0.00,23.9,22.9,00.0,32.9,25.4,07.5,0000.0,0000.54,0002.95,0000.38
2022-02-20 01:36:00,,0820.0,5.00,0.00,23.8,22.9,00.0,32.9,25.4,07.5,0000.0,0000.55,0002.59,0000.39
2022-02-20 01:37:00,,0819.9,5.00,0.00,23.8,23.0,00.0,32.9,25.5,07.5,0000.0,0000.56,0002.49,0000.39
2022-02-20 01:38:00,,0820.0,4.99,0.00,23.8,23.0,00.0,32.9,25.5,07.4,0000.0,0000.54,0002.40,0000.38
2022-02-20 01:39:00,,0820.3,5.00,0.00,23.8,22.9,00.0,32.9,25.5,07.5,0000.0,0000.49,0002.30,0000.38
2022-02-20 01:40:00,,0820.2,4.99,0.00,23.8,22.9,00.0,32.9,25.5,07.8,0000.0,0000.49,0002.27,0000.37
2022-02-20 01:41:00,,0820.2,5.01,0.00,23.8,22.9,00.0,32.9,25.4,07.5,0000.0,0000.49,0002.29,0000.37
2022-02-20 01:42:00,,0820.2,4.99,0.00,23.8,22.9,00.0,32.9,25.4,07.6,0000.0,0000.51,0002.36,0000.37
2022-02-20 01:43:00,,0820.2,4.99,0.00,23.8,22.8,00.0,32.9,25.4,07.6,0000.0,0000.52,0002.36,0000.37
2022-02-20 01:44:00,,0820.1,5.01,0.00,23.8,22.8,00.0,32.9,25.4,07.7,0000.0,0000.53,0001.72,0000.37
2022-02-20 01:45:00,,0820.1,4.99,0.00,23.8,22.9,00.0,32.9,25.4,07.5,0000.0,0000.53,0000.99,0000.37
2022-02-20 01:46:00,,0820.2,4.99,0.00,23.8,22.9,00.0,32.9,25.3,07.5,0000.0,0000.54,0000.99,0000.37
2022-02-20 01:47:00,,0820.1,5.01,0.00,23.8,22.8,00.0,32.9,25.3,07.6,0000.0,0000.54,0001.03,0000.37
2022-02-20 01:48:00,,0820.1,5.01,0.00,23.8,22.8,00.0,32.9,25.4,07.6,0000.0,0000.53,0000.88,0000.37
2022-02-20 01:49:00,,0820.1,5.00,0.00,23.7,22.8,00.0,32.8,25.3,07.4,0000.0,0000.53,0000.89,0000.37
2022-02-20 01:50:00,,0820.0,4.99,0.00,23.8,22.8,00.0,32.8,25.3,07.6,0000.0,0000.54,0000.93,0000.37
2022-02-20 01:51:00,,0819.9,5.00,0.00,23.7,22.8,00.0,32.8,25.3,07.8,0000.0,0000.57,0000.96,0000.38
2022-02-20 01:52:00,,0819.9,5.01,0.00,23.7,22.8,00.0,32.8,25.3,07.6,0000.0,0000.55,0000.90,0000.37
2022-02-20 01:53:00,,0820.0,5.00,0.00,23.7,22.8,00.0,32.8,25.4,07.3,0000.0,0000.51,0000.80,0000.37
2022-02-20 01:54:00,,0820.0,4.99,0.00,23.7,22.8,00.0,32.8,25.3,07.5,0000.0,0000.49,0000.75,0000.36
2022-02-20 01:55:00,,0820.1,5.00,0.00,23.7,22.8,00.0,32.8,25.3,07.7,0000.0,0000.47,0000.69,0000.36
2022-02-20 01:56:00,,0820.1,5.02,0.00,23.7,22.8,00.0,32.8,25.3,07.8,0000.0,0000.48,0000.69,0000.36
2022-02-20 01:57:00,,0820.2,4.99,0.00,23.7,22.7,00.0,32.8,25.3,07.7,0000.0,0000.49,0000.71,0000.36
2022-02-20 01:58:00,,0820.2,5.00,0.00,23.7,22.7,00.0,32.8,25.3,07.7,0000.0,0000.50,0000.77,0000.37
2022-02-20 01:59:00,,0820.2,5.00,0.00,23.7,22.7,00.0,32.8,25.3,07.9,0000.0,0000.51,0000.78,0000.38
